Location: Asheville, NC
(35.6000°N, 82.5500°W)
Time: 19:43:18
(UTC-04:00)

AAUSAT CUBESAT 2 - Pass Details

Date: 09 March 2018
Orbit: 576 x 592 km, 97.5° (Epoch: 23 June)

Event Time Altitude Azimuth Distance (km) Brightness Sun altitude
Rises 20:20:14 0° 198° (SSW) 2,776 ? -22.6°
Reaches altitude 10° 20:22:45 10° 214° (SSW) 1,884 ? -23.1°
Maximum altitude 20:25:56 22° 265° (W) 1,296 ? -23.7°
Drops below altitude 10° 20:29:08 10° 316° (NW) 1,902 ? -24.3°
Sets 20:31:43 0° 332° (NNW) 2,810 ? -24.9°
